Weather History for West Palm Beach, FL

Change the Weather History Date:

Sunday, October 30, 2011

  Actual Average Record
Temperature  
Mean Temperature 75 °F 76 °F  
Max Temperature 77 °F 83 °F 92 °F (1917)
Min Temperature 72 °F 69 °F 46 °F (1968)
Degree Days  
Heating Degree Days 0 0  
Month to date heating degree days 0 0  
Since 1 July heating degree days 0 0  
Cooling Degree Days 10 11  
Month to date cooling degree days 386 403  
Year to date cooling degree days 4278 3611  
Growing Degree Days 24 (Base 50)    
Moisture  
Dew Point 71 °F    
Average Humidity 88    
Maximum Humidity 100    
Minimum Humidity 76    
Precipitation  
Precipitation 1.18 in 0.13 in 2.72 in (1913)
Month to date precipitation 8.00 5.00  
Year to date precipitation 43.77 54.07  
Snow  
Snow 0.00 in - - ()
Month to date snowfall 0.0  
Since 1 July snowfall 0.0  
Since 1 September snowfall 0.0  
Snow Depth 0.00 in    
Sea Level Pressure  
Sea Level Pressure 29.98 in    
Wind  
Wind Speed 16 mph (NE)    
Max Wind Speed 23 mph    
Max Gust Speed 30 mph    
Visibility 8 miles    
Events Rain    
T = Trace of Precipitation, MM = Missing Value Source: NWS Daily Summary

Daily Weather History Graph

Daily Weather History Graph

Search for Another Location

Airport:

Trip Planner

Search our weather history database for the weather conditions in past years. The results will help you decide how hot, cold, wet, or windy it might be!

Date:

Astronomy

Oct. 30, 2011 Rise Set
Actual Time 7:28 AM EDT 6:39 PM EDT
Civil Twilight 7:04 AM EDT 7:03 PM EDT
Nautical Twilight 6:37 AM EDT 7:30 PM EDT
Astronomical Twilight 6:10 AM EDT 7:57 PM EDT
Moon 11:30 AM EDT 10:21 PM EDT
Length of Visible Light 11h 58m
Length of Day
11h 10m
Waxing Crescent, 20% of the Moon is Illuminated
Oct 30
Waxing Crescent
Nov 2
First Quarter
Nov 10
Full
Nov 18
Last Quarter
Nov 25
New

Hourly Weather History & Observations

Time (EDT) Temp. Dew Point Humidity Pressure Visibility Wind Dir Wind Speed Gust Speed Precip Events Conditions
12:53 AM 73.9 °F 70.0 °F 87% 29.93 in 10.0 mi North 11.5 mph - N/A   Mostly Cloudy
1:33 AM 73.4 °F 69.8 °F 88% 29.92 in 10.0 mi North 15.0 mph 21.9 mph N/A   Overcast
1:53 AM 73.9 °F 69.1 °F 85% 29.92 in 10.0 mi North 16.1 mph - N/A   Overcast
2:53 AM 73.9 °F 71.1 °F 91% 29.91 in 10.0 mi North 10.4 mph - 0.00 in Rain Light Rain
3:53 AM 73.9 °F 71.1 °F 91% 29.90 in 10.0 mi North 13.8 mph - N/A   Overcast
4:53 AM 75.0 °F 70.0 °F 84% 29.91 in 10.0 mi NNE 15.0 mph 20.7 mph 0.01 in Rain Light Rain
5:53 AM 73.0 °F 70.0 °F 90% 29.94 in 10.0 mi NNE 12.7 mph - 0.02 in   Overcast
6:53 AM 73.9 °F 70.0 °F 87% 29.96 in 10.0 mi NNE 11.5 mph - 0.00 in   Overcast
7:53 AM 75.0 °F 69.1 °F 82% 29.97 in 10.0 mi NE 19.6 mph 25.3 mph N/A   Overcast
8:53 AM 75.0 °F 69.1 °F 82% 29.99 in 10.0 mi NE 15.0 mph 23.0 mph N/A   Overcast
9:53 AM 75.0 °F 69.1 °F 82% 30.02 in 10.0 mi NE 19.6 mph 25.3 mph N/A   Overcast
10:53 AM 77.0 °F 69.1 °F 76% 30.03 in 10.0 mi NE 18.4 mph 25.3 mph N/A   Overcast
11:53 AM 77.0 °F 69.1 °F 76% 30.02 in 10.0 mi NE 17.3 mph 28.8 mph N/A   Overcast
12:53 PM 75.9 °F 69.1 °F 79% 30.01 in 10.0 mi NE 20.7 mph 29.9 mph N/A   Overcast
1:53 PM 75.9 °F 69.1 °F 79% 30.00 in 10.0 mi ENE 13.8 mph 24.2 mph N/A   Overcast
2:53 PM 75.9 °F 69.1 °F 79% 29.99 in 10.0 mi ENE 16.1 mph 26.5 mph N/A   Overcast
3:53 PM 75.9 °F 69.1 °F 79% 29.98 in 10.0 mi ENE 16.1 mph 21.9 mph N/A   Overcast
4:53 PM 73.9 °F 71.1 °F 91% 29.99 in 3.0 mi ENE 12.7 mph - 0.01 in Rain Rain
5:02 PM 73.4 °F 71.6 °F 94% 29.99 in 1.5 mi ENE 12.7 mph - 0.02 in Rain Heavy Rain
5:30 PM 73.4 °F 71.6 °F 94% 30.00 in 3.0 mi ENE 12.7 mph - 0.17 in Rain Rain
5:44 PM 73.4 °F 71.6 °F 94% 30.00 in 2.0 mi NE 13.8 mph 21.9 mph 0.24 in Rain Heavy Rain
5:53 PM 73.0 °F 71.1 °F 93% 30.00 in 2.0 mi NE 13.8 mph - 0.27 in Rain Heavy Rain
6:53 PM 73.0 °F 71.1 °F 93% 30.00 in 2.0 mi NE 15.0 mph 23.0 mph 0.20 in Rain Heavy Rain
6:56 PM 73.4 °F 71.6 °F 94% 30.00 in 1.0 mi NE 15.0 mph 23.0 mph 0.05 in Rain Heavy Rain
7:17 PM 71.6 °F 71.6 °F 100% 30.00 in 2.0 mi ENE 16.1 mph 24.2 mph 0.50 in Rain Heavy Rain
7:26 PM 71.6 °F 71.6 °F 100% 30.00 in 3.0 mi ENE 13.8 mph 24.2 mph 0.54 in Rain Light Rain
7:53 PM 73.0 °F 71.1 °F 93% 30.00 in 7.0 mi ENE 19.6 mph 28.8 mph 0.54 in   Overcast
8:53 PM 73.0 °F 72.0 °F 96% 30.01 in 10.0 mi ENE 17.3 mph 24.2 mph 0.01 in   Overcast
9:53 PM 73.9 °F 72.0 °F 93% 30.03 in 10.0 mi ENE 13.8 mph 24.2 mph 0.00 in Rain Light Rain
10:53 PM 73.9 °F 72.0 °F 93% 30.03 in 10.0 mi East 18.4 mph - 0.08 in Rain Light Rain
11:41 PM 73.4 °F 73.4 °F 100% 30.03 in 9.0 mi ENE 16.1 mph - 0.04 in Rain Light Rain
11:53 PM 73.9 °F 73.0 °F 97% 30.02 in 9.0 mi East 18.4 mph 27.6 mph 0.04 in Rain Light Rain